Taba International, Egypt

6:34 AM EET on May 25, 2018 (GMT +0200)
Taba International

Weather History for HETB - June, 2013

Change the Weather History Date:

Monday, June 3, 2013

  Actual Average (WUND) Record (WUND)
Temperature  
Mean Temperature 88 °F -  
Max Temperature 102 °F - - (-1)
Min Temperature 71 °F - - (-1)
Cooling Degree Days 22    
Growing Degree Days 38 (Base 50)    
Moisture  
Dew Point 32 °F    
Average Humidity 19    
Maximum Humidity 53    
Minimum Humidity 4    
Precipitation  
Precipitation 0.00 in - - ()
Sea Level Pressure  
Sea Level Pressure 29.95 in    
Wind  
Wind Speed 5 mph ()    
Max Wind Speed 22 mph    
Max Gust Speed 32 mph    
Averages and records for this station are not official NWS values.
T = Trace of Precipitation, MM = Missing Value Source: Averaged Metar Reports

Daily Weather History Graph

Daily Weather History Graph

Search for Another Location

Airport or City:

Astronomy

Jun. 03, 2013 Rise Set
Actual Time 4:40 AM EET 6:37 PM EET
Civil Twilight 4:13 AM EET 7:04 PM EET
Nautical Twilight 3:41 AM EET 7:37 PM EET
Astronomical Twilight 3:06 AM EET 8:11 PM EET
Moon 1:07 AM EET (6/3) 2:05 PM EET (6/3)
Length of Visible Light 14h 50m
Length of Day
13h 56m
Waning Crescent, 24% of the Moon is Illuminated
Jun 3
Waning Crescent
Jun 8
New
Jun 16
First Quarter
Jun 23
Full
Jun 30
Last Quarter

Hourly Weather History & Observations

Time (EET) Temp. Heat Index Dew Point Humidity Pressure Visibility Wind Dir Wind Speed Gust Speed Precip Events Conditions
12:00 AM 82.4 °F - 21.2 °F 10% 29.95 in - Calm Calm - N/A   Clear
2:00 AM 78.8 °F - 21.2 °F 12% 29.92 in - Calm Calm - N/A   Clear
3:00 AM 75.2 °F - 19.4 °F 12% 29.92 in - Calm Calm - N/A   Clear
4:00 AM 75.2 °F - 19.4 °F 12% 29.92 in - Calm Calm - N/A   Clear
5:00 AM 78.8 °F - 17.6 °F 10% 29.92 in - Calm Calm - N/A   Clear
6:00 AM 80.6 °F - 17.6 °F 10% 29.95 in - Calm Calm - N/A   Clear
7:00 AM 91.4 °F - 15.8 °F 6% 29.95 in - Calm Calm - N/A   Clear
8:00 AM 91.4 °F - 15.8 °F 6% 29.95 in - Calm Calm - N/A   Clear
9:00 AM 93.2 °F - 15.8 °F 6% 29.95 in - Calm Calm - N/A   Clear
10:00 AM 95.0 °F - 15.8 °F 6% 29.95 in - Calm Calm - N/A   Clear
11:00 AM 102.2 °F - 14.0 °F 4% 29.92 in - West 8.1 mph - N/A   Clear
12:00 PM 100.4 °F - 21.2 °F 6% 29.92 in - WNW 13.8 mph - N/A   Clear
1:00 PM 100.4 °F - 30.2 °F 9% 29.92 in - West 12.7 mph - N/A   Clear
2:00 PM 98.6 °F - 39.2 °F 13% 29.92 in - West 17.3 mph 32.2 mph N/A   Clear
3:00 PM 98.6 °F - 41.0 °F 14% 29.92 in - WNW 15.0 mph 31.1 mph N/A   Clear
4:00 PM 95.0 °F - 42.8 °F 16% 29.92 in - WNW 19.6 mph - N/A   Clear
5:00 PM 87.8 °F - 51.8 °F 29% 29.95 in - NW 13.8 mph - N/A   Clear
6:00 PM 87.8 °F - 51.8 °F 29% 29.95 in - NW 13.8 mph - N/A   Clear
7:00 PM 82.4 °F 81.4 °F 53.6 °F 37% 29.95 in - NW 18.4 mph - N/A   Clear
8:00 PM 77.0 °F - 53.6 °F 44% 29.98 in - NW 21.9 mph - N/A   Clear
9:00 PM 75.2 °F - 44.6 °F 34% 30.01 in - WNW 12.7 mph - N/A   Clear
10:00 PM 73.4 °F - 53.6 °F 50% 30.01 in - WNW 11.5 mph - N/A   Clear
11:00 PM 71.6 °F - 53.6 °F 53% 30.01 in - West 5.8 mph - N/A   Clear